Change the Weather History Date:

Saturday, June 8, 2013

  Actual Average Record
Temperature  
Mean Temperature 82 °F 76 °F  
Max Temperature 88 °F 86 °F 99 °F (2008)
Min Temperature 75 °F 67 °F 52 °F (1977)
Degree Days  
Heating Degree Days 0 0  
Month to date heating degree days 0 0  
Since 1 June heating degree days 0 0  
Since 1 July heating degree days 2446 2409  
Cooling Degree Days 17 11  
Month to date cooling degree days 93 84  
Year to date cooling degree days 319 365  
Since 1 June cooling degree days 93 84  
Growing Degree Days 32 (Base 50)    
Moisture  
Dew Point 72 °F    
Average Humidity 76    
Maximum Humidity 94    
Minimum Humidity 57    
Precipitation  
Precipitation 0.02 in 0.18 in 2.27 in (1875)
Month to date precipitation 3.42 1.33  
Year to date precipitation 20.13 20.23  
Sea Level Pressure  
Sea Level Pressure 29.97 in    
Wind  
Wind Speed 11 mph (SSW)    
Max Wind Speed 18 mph    
Max Gust Speed 24 mph    
Visibility 10 miles    
Events Rain    
T = Trace of Precipitation, MM = Missing Value Source: NWS Daily Summary

Daily Weather History Graph

Daily Weather History Graph

Search for Another Location

Airport or City:

Trip Planner

Search our weather history database for the weather conditions in past years. The results will help you decide how hot, cold, wet, or windy it might be!

Date:

Astronomy

Jun. 08, 2013 Rise Set
Actual Time 5:59 AM EDT 8:22 PM EDT
Civil Twilight 5:30 AM EDT 8:51 PM EDT
Nautical Twilight 4:54 AM EDT 9:27 PM EDT
Astronomical Twilight 4:15 AM EDT 10:06 PM EDT
Moon 6:03 AM EDT (6/8) 8:25 PM EDT (6/8)
Length of Visible Light 15h 21m
Length of Day
14h 23m
New Moon, 0% of the Moon is Illuminated
Jun 8
New Moon
Jun 16
First Quarter
Jun 23
Full
Jun 30
Last Quarter
Jul 8
New

Hourly Weather History & Observations

Time (EDT) Temp. Heat Index Dew Point Humidity Pressure Visibility Wind Dir Wind Speed Gust Speed Precip Events Conditions
12:53 AM 75.9 °F - 71.1 °F 85% 29.88 in 10.0 mi SSW 9.2 mph - N/A   Clear
1:53 AM 75.9 °F - 72.0 °F 87% 29.88 in 10.0 mi SSW 11.5 mph - N/A   Clear
2:53 AM 75.9 °F - 72.0 °F 87% 29.88 in 10.0 mi SSW 12.7 mph - N/A   Clear
3:53 AM 75.9 °F - 72.0 °F 87% 29.89 in 10.0 mi SSW 11.5 mph - N/A   Partly Cloudy
4:53 AM 75.9 °F - 72.0 °F 87% 29.90 in 10.0 mi SSW 9.2 mph - N/A   Mostly Cloudy
5:18 AM 75.2 °F - 73.4 °F 94% 29.90 in 10.0 mi SSW 8.1 mph - N/A   Overcast
5:53 AM 77.0 °F - 73.0 °F 88% 29.91 in 9.0 mi SW 10.4 mph - 0.00 in Rain Light Rain
6:45 AM 75.2 °F - 73.4 °F 94% 29.92 in 10.0 mi SW 9.2 mph - 0.02 in   Mostly Cloudy
6:53 AM 75.9 °F - 73.9 °F 94% 29.92 in 10.0 mi SSW 6.9 mph - 0.02 in   Mostly Cloudy
7:01 AM 77.0 °F - 73.4 °F 89% 29.92 in 10.0 mi SSW 10.4 mph - N/A   Scattered Clouds
7:53 AM 78.1 °F - 73.9 °F 87% 29.94 in 10.0 mi SSW 9.2 mph - N/A   Scattered Clouds
8:53 AM 81.0 °F 85.8 °F 73.0 °F 77% 29.95 in 10.0 mi SSW 13.8 mph 21.9 mph N/A   Partly Cloudy
9:29 AM 80.6 °F 84.6 °F 71.6 °F 74% 29.97 in 10.0 mi SSW 15.0 mph 21.9 mph N/A   Mostly Cloudy
9:53 AM 82.0 °F 86.7 °F 72.0 °F 71% 29.97 in 10.0 mi SSW 16.1 mph 20.7 mph N/A   Mostly Cloudy
10:03 AM 82.4 °F 88.2 °F 73.4 °F 74% 29.97 in 10.0 mi SSW 10.4 mph - N/A   Scattered Clouds
10:53 AM 84.0 °F 89.6 °F 72.0 °F 67% 29.98 in 10.0 mi SW 13.8 mph 23.0 mph N/A   Partly Cloudy
11:53 AM 86.0 °F 90.7 °F 70.0 °F 59% 29.98 in 10.0 mi SSW 16.1 mph 23.0 mph N/A   Clear
12:53 PM 87.1 °F 93.6 °F 72.0 °F 61% 29.99 in 10.0 mi SW 15.0 mph - N/A   Clear
1:53 PM 84.0 °F 89.6 °F 72.0 °F 67% 29.99 in 10.0 mi WSW 11.5 mph - 0.00 in Rain Light Rain
2:53 PM 87.1 °F 93.6 °F 72.0 °F 61% 29.99 in 10.0 mi SW 15.0 mph 20.7 mph 0.00 in   Partly Cloudy
3:53 PM 86.0 °F 92.2 °F 72.0 °F 63% 29.99 in 10.0 mi SW 13.8 mph 20.7 mph N/A   Mostly Cloudy
4:53 PM 87.1 °F 92.8 °F 71.1 °F 59% 29.99 in 10.0 mi SSW 11.5 mph 17.3 mph N/A   Partly Cloudy
5:53 PM 84.9 °F 90.1 °F 71.1 °F 63% 30.00 in 10.0 mi SW 12.7 mph - N/A   Clear
6:53 PM 82.9 °F 87.5 °F 71.1 °F 67% 30.02 in 10.0 mi SW 8.1 mph - N/A   Clear
7:53 PM 79.0 °F - 72.0 °F 79% 30.04 in 10.0 mi SW 6.9 mph - N/A   Clear
8:53 PM 77.0 °F - 73.0 °F 88% 30.06 in 10.0 mi South 10.4 mph - N/A   Clear
9:53 PM 77.0 °F - 73.0 °F 88% 30.09 in 10.0 mi SSW 9.2 mph - N/A   Clear
10:53 PM 75.9 °F - 73.0 °F 91% 30.11 in 10.0 mi SSW 4.6 mph - N/A   Clear
11:53 PM 75.9 °F - 73.0 °F 91% 30.12 in 10.0 mi SSW 6.9 mph - N/A   Clear